User: anonymous
Location: Oshawa
(43.9000°N, 78.8670°W)
Time: 00:36:44
(UTC-04:00)
Language:

Cosmos 1821 Rocket - Orbit

View from above orbital plane
View from above orbital plane
View from above satellite
View from above satellite

Ground track
Ground track

The orbit data is extracted from the following two-line orbital elements,

1 17526U 87017B   14245.51427701  .00000156  00000-0  14296-3 0  1288
2 17526 082.8996 081.3754 0039005 285.0222 133.8260 13.76697786366188
Epoch (UTC): 02 September 2014 12:20:33
Eccentricity: 0.0039005
inclination: 82.8996°
perigee height: 947 km
apogee height: 1004 km
right ascension of ascending node: 81.3754°
argument of perigee: 285.0222°
revolutions per day: 13.76697786
mean anomaly at epoch: 133.8260°
orbit number at epoch: 36618

The dashed part of the orbit path shows where the satellite is in the earth's shadow,  

DLR